Stündliche Wetter Kzyl-Tyubyak

Heute, 14 Mai, Freitag

Zeit Temperatur Niederschläge Wind Luftdruck Luftfeuchtigkeit
00:00 +19°C° 0 mm 2 m/S 760 mmHg 52%
01:00 +18°C° 0 mm 2 m/S 760 mmHg 52%
02:00 +18°C° 0 mm 2 m/S 760 mmHg 53%
03:00 +17°C° 0 mm 2 m/S 760 mmHg 53%
04:00 +17°C° 0 mm 2 m/S 760 mmHg 53%
05:00 +18°C° 0 mm 2 m/S 760 mmHg 54%
06:00 +19°C° 0 mm 3 m/S 760 mmHg 55%
07:00 +20°C° 0 mm 3 m/S 760 mmHg 56%
08:00 +22°C° 0 mm 3 m/S 760 mmHg 51%
09:00 +23°C° 0 mm 4 m/S 760 mmHg 46%
10:00 +26°C° 0 mm 4 m/S 760 mmHg 40%
11:00 +27°C° 0 mm 5 m/S 760 mmHg 38%
12:00 +28°C° 0 mm 5 m/S 759 mmHg 37%
13:00 +29°C° 0 mm 5 m/S 759 mmHg 35%
14:00 +29°C° 0 mm 5 m/S 759 mmHg 34%
15:00 +30°C° 0 mm 5 m/S 759 mmHg 34%
16:00 +30°C° 0 mm 5 m/S 759 mmHg 33%
17:00 +29°C° 0 mm 4 m/S 758 mmHg 39%
18:00 +27°C° 0 mm 4 m/S 758 mmHg 45%
19:00 +26°C° 0 mm 3 m/S 758 mmHg 52%
20:00 +24°C° 0 mm 3 m/S 758 mmHg 53%
21:00 +22°C° 0 mm 3 m/S 758 mmHg 54%
22:00 +21°C° 0 mm 3 m/S 758 mmHg 55%
23:00 +20°C° 0 mm 3 m/S 758 mmHg 56%

Morgen, 15 Mai, Samstag

Zeit Temperatur Niederschläge Wind Luftdruck Luftfeuchtigkeit
00:00 +20°C° 0 mm 3 m/S 758 mmHg 56%
01:00 +19°C° 0 mm 3 m/S 758 mmHg 56%
02:00 +19°C° 0 mm 3 m/S 758 mmHg 57%
03:00 +18°C° 0 mm 3 m/S 758 mmHg 57%
04:00 +18°C° 0 mm 3 m/S 758 mmHg 58%
05:00 +19°C° 0 mm 3 m/S 758 mmHg 57%
06:00 +20°C° 0 mm 3 m/S 758 mmHg 57%
07:00 +21°C° 0 mm 2 m/S 758 mmHg 56%
08:00 +22°C° 0 mm 3 m/S 758 mmHg 50%
09:00 +25°C° 0 mm 4 m/S 758 mmHg 43%
10:00 +27°C° 0 mm 4 m/S 758 mmHg 36%
11:00 +28°C° 0 mm 4 m/S 758 mmHg 34%
12:00 +29°C° 0 mm 5 m/S 758 mmHg 32%
13:00 +30°C° 0 mm 5 m/S 758 mmHg 29%
14:00 +30°C° 0 mm 5 m/S 758 mmHg 31%
15:00 +30°C° 0 mm 4 m/S 757 mmHg 32%
16:00 +32°C° 0 mm 4 m/S 757 mmHg 34%
17:00 +29°C° 0 mm 4 m/S 757 mmHg 39%
18:00 +28°C° 0 mm 3 m/S 757 mmHg 44%
19:00 +27°C° 0 mm 3 m/S 757 mmHg 49%
20:00 +25°C° 0 mm 3 m/S 756 mmHg 50%
21:00 +24°C° 0 mm 3 m/S 756 mmHg 51%
22:00 +21°C° 0 mm 3 m/S 756 mmHg 53%
23:00 +21°C° 0 mm 3 m/S 756 mmHg 53%

übermorgen, 16 Mai, Sonntag

Zeit Temperatur Niederschläge Wind Luftdruck Luftfeuchtigkeit
00:00 +20°C° 0 mm 3 m/S 756 mmHg 53%
01:00 +19°C° 0 mm 3 m/S 756 mmHg 53%
02:00 +19°C° 0 mm 3 m/S 756 mmHg 53%
03:00 +19°C° 0 mm 3 m/S 756 mmHg 54%
04:00 +18°C° 0 mm 3 m/S 756 mmHg 55%
05:00 +19°C° 0 mm 3 m/S 756 mmHg 55%
06:00 +20°C° 0 mm 3 m/S 756 mmHg 56%
07:00 +21°C° 0 mm 3 m/S 756 mmHg 56%
08:00 +24°C° 0 mm 3 m/S 756 mmHg 50%
09:00 +26°C° 0 mm 4 m/S 756 mmHg 44%
10:00 +29°C° 0 mm 5 m/S 756 mmHg 38%
11:00 +29°C° 0 mm 5 m/S 756 mmHg 35%
12:00 +30°C° 0 mm 5 m/S 756 mmHg 32%
13:00 +32°C° 0 mm 5 m/S 756 mmHg 28%
14:00 +32°C° 0 mm 5 m/S 755 mmHg 29%
15:00 +33°C° 0 mm 5 m/S 755 mmHg 29%
16:00 +33°C° 0 mm 4 m/S 755 mmHg 29%
17:00 +30°C° 0 mm 4 m/S 755 mmHg 35%
18:00 +29°C° 0 mm 3 m/S 754 mmHg 40%
19:00 +28°C° 0 mm 2 m/S 754 mmHg 46%
20:00 +26°C° 0 mm 3 m/S 754 mmHg 47%
21:00 +25°C° 0 mm 3 m/S 754 mmHg 49%
22:00 +22°C° 0 mm 3 m/S 754 mmHg 51%
23:00 +21°C° 0 mm 3 m/S 754 mmHg 54%

17 Mai, Montag

Zeit Temperatur Niederschläge Wind Luftdruck Luftfeuchtigkeit
00:00 +20°C° 0 mm 3 m/S 754 mmHg 58%
01:00 +19°C° 0 mm 3 m/S 754 mmHg 61%
02:00 +19°C° 0 mm 3 m/S 754 mmHg 60%
03:00 +18°C° 0 mm 3 m/S 755 mmHg 60%
04:00 +18°C° 0 mm 3 m/S 755 mmHg 59%
05:00 +19°C° 0 mm 3 m/S 755 mmHg 58%
06:00 +20°C° 0 mm 2 m/S 755 mmHg 58%
07:00 +21°C° 0 mm 2 m/S 755 mmHg 57%
08:00 +24°C° 0 mm 2 m/S 755 mmHg 52%
09:00 +26°C° 0 mm 3 m/S 755 mmHg 46%
10:00 +28°C° 0 mm 3 m/S 755 mmHg 40%
11:00 +29°C° 0 mm 4 m/S 755 mmHg 39%
12:00 +30°C° 0 mm 4 m/S 755 mmHg 37%
13:00 +32°C° 0 mm 5 m/S 755 mmHg 36%
14:00 +32°C° 0 mm 5 m/S 755 mmHg 36%
15:00 +32°C° 0 mm 5 m/S 754 mmHg 36%
16:00 +32°C° 0 mm 5 m/S 754 mmHg 36%
17:00 +30°C° 0 mm 4 m/S 754 mmHg 42%
18:00 +29°C° 0 mm 3 m/S 754 mmHg 47%
19:00 +28°C° 0 mm 2 m/S 754 mmHg 53%
20:00 +26°C° 0 mm 2 m/S 754 mmHg 55%
21:00 +24°C° 0 mm 2 m/S 754 mmHg 57%
22:00 +23°C° 0 mm 2 m/S 755 mmHg 59%
23:00 +21°C° 0 mm 2 m/S 755 mmHg 61%

18 Mai, Dienstag

Zeit Temperatur Niederschläge Wind Luftdruck Luftfeuchtigkeit
00:00 +21°C° 0 mm 2 m/S 755 mmHg 64%
01:00 +21°C° 0 mm 1 m/S 755 mmHg 66%
02:00 +21°C° 0.1 mm 1 m/S 755 mmHg 68%
03:00 +20°C° 0.1 mm 1 m/S 755 mmHg 71%
04:00 +20°C° 0.1 mm 1 m/S 755 mmHg 73%
05:00 +21°C° 0 mm 1 m/S 755 mmHg 69%
06:00 +22°C° 0 mm 1 m/S 755 mmHg 66%
07:00 +23°C° 0 mm 1 m/S 755 mmHg 63%
08:00 +24°C° 0 mm 1 m/S 755 mmHg 58%
09:00 +26°C° 0 mm 1 m/S 755 mmHg 52%
10:00 +27°C° 0 mm 1 m/S 755 mmHg 47%
11:00 +29°C° 0 mm 2 m/S 755 mmHg 44%
12:00 +30°C° 0 mm 2 m/S 755 mmHg 41%
13:00 +31°C° 0 mm 2 m/S 755 mmHg 38%
14:00 +31°C° 0 mm 3 m/S 754 mmHg 36%
15:00 +31°C° 0 mm 3 m/S 754 mmHg 34%
16:00 +32°C° 0 mm 4 m/S 754 mmHg 33%
17:00 +30°C° 0 mm 3 m/S 754 mmHg 38%
18:00 +29°C° 0 mm 3 m/S 754 mmHg 43%
19:00 +28°C° 0 mm 2 m/S 754 mmHg 48%
20:00 +26°C° 0 mm 2 m/S 754 mmHg 50%
21:00 +24°C° 0 mm 1 m/S 754 mmHg 53%
22:00 +23°C° 0 mm 1 m/S 754 mmHg 56%
23:00 +22°C° 0 mm 1 m/S 754 mmHg 58%

19 Mai, Mittwoch

Zeit Temperatur Niederschläge Wind Luftdruck Luftfeuchtigkeit
00:00 +22°C° 0 mm 1 m/S 754 mmHg 61%
01:00 +21°C° 0 mm 1 m/S 754 mmHg 63%
02:00 +21°C° 0 mm 1 m/S 755 mmHg 66%
03:00 +19°C° 0 mm 2 m/S 755 mmHg 69%
04:00 +18°C° 0 mm 2 m/S 755 mmHg 72%
05:00 +19°C° 0 mm 2 m/S 755 mmHg 70%
06:00 +20°C° 0 mm 2 m/S 755 mmHg 69%
07:00 +22°C° 0 mm 1 m/S 756 mmHg 68%
08:00 +23°C° 0 mm 2 m/S 756 mmHg 63%
09:00 +25°C° 0 mm 3 m/S 756 mmHg 59%
10:00 +26°C° 0 mm 4 m/S 756 mmHg 54%
11:00 +27°C° 0 mm 4 m/S 756 mmHg 51%
12:00 +28°C° 0 mm 4 m/S 756 mmHg 48%
13:00 +29°C° 0 mm 4 m/S 756 mmHg 45%
14:00 +29°C° 0 mm 4 m/S 757 mmHg 45%
15:00 +29°C° 0 mm 3 m/S 757 mmHg 44%
16:00 +29°C° 0 mm 3 m/S 757 mmHg 44%
17:00 +28°C° 0 mm 3 m/S 757 mmHg 49%
18:00 +27°C° 0 mm 3 m/S 757 mmHg 54%
19:00 +26°C° 0 mm 3 m/S 757 mmHg 60%
20:00 +24°C° 0 mm 3 m/S 758 mmHg 62%
21:00 +22°C° 0 mm 3 m/S 758 mmHg 64%
22:00 +20°C° 0 mm 3 m/S 758 mmHg 66%
23:00 +19°C° 0 mm 3 m/S 758 mmHg 67%
Mehr zeigen

Wir brauchen deine Erlaubnis

Meteoprog und unser Service Anbieter werden persönliche Daten aufbewahren, so wie Cookies, Geräte Bezeichnung oder ähnliche Technologien von deinem Gerät und Prozess, so wie Persönliche Daten Inhalte und Werbungen, genauso wie social Media und den Verkehr zu analysieren.

  • Aufbewahrung und/oder Zugang zu deiner Geräte Informationen.

    Cookies, Geräte Bezeichnung oder andere Informationen, können aufbewahrt oder Zugang zu deinem Gerät erhalten, für den Grund, der oben angegeben wird.

  • Personalisierte Werbung und Inhalte, Messungen, Einblick in das Publikum und Produkt Entwicklung.

    Werbungen und Inhalte können personalisiert werden, basierend auf ein Profil. Mehr Daten können besser personalisierte Werbungen und Inhalte hinzufügen. Werbung und Inhalte können gezeigt und gemessen werden. Einblicke über das Publikum, welche die Werbung gesehen haben und den Inhalt, können abgeleitet werden. So wie Daten können genutzt werden, um es zu verbessern oder die Benutzer Erfahrung zu verbessern das System und die Software.

Wenn du “Ich stimme zu” klickst, erlaubst du uns, die Cookies zu benutzen die Geräte Bezeichnung, den Web oder ähnliche Technologien zu benutzen. Deine Settings, können in deinem Gerät bei deinem Browser geändert werden.

Für den bestimmten Zweck, berechtigten Interessen beruhen darauf, mehr als auf den Inhalt. Du kannst mehr darüber in unseren Privaten und Cookie Politik lesen.